Orbital Elements at Epoch 2459200.5 (2020-Dec-17.0) TDB
Reference: JPL 17 (heliocentric ecliptic J2000)
Element | Value | Uncertainty (1-sigma) | Units |
e | .06434361691156666 | 5.1622e-08 | |
a | 3.119993921383104 | 2.8964e-08 | au |
q | 2.919242227739213 | 1.5548e-07 | au |
i | 11.14750804226642 | 6.1731e-06 | deg |
node | 43.52677977618703 | 2.3697e-05 | deg |
peri | 127.0786965926695 | 5.3871e-05 | deg |
M | 92.74766154061118 | 4.5787e-05 | deg |
tp | 2458681.903577563901 (2019-Jul-17.40357756) | 0.00025598 | TDB |
period | 2012.931743785779 5.51 | 2.803e-05 7.674e-08 | d yr |
n | .1788436200638068 | 2.4904e-09 | deg/d |
Q | 3.320745615026996 | 3.0828e-08 | au |
|
| | Orbit Determination Parameters
Additional Information
|